Location: Artiguedieu
(43.5000°N, 0.5454°E)
Time: 19:37:22
(UTC+00:00)

Transit 2A - Pass Details

Date: 27 July 2021
Orbit: 594 x 964 km, 66.7° (Epoch: 28 September)

Event Time Altitude Azimuth Distance (km) Brightness Sun altitude
Rises 08:01:40 0° 230° (SW) 2,827 8.6 34.1°
Reaches altitude 10° 08:03:57 10° 238° (WSW) 1,943 7.8 34.5°
Maximum altitude 08:08:03 40° 309° (NW) 925 6.4 35.3°
Drops below altitude 10° 08:12:25 10° 19° (NNE) 2,075 8.5 36.1°
Sets 08:14:57 0° 27° (NNE) 3,046 9.3 36.5°
